Theta_e
293 291 287 288 289 289 287 286 285 287 290 289 289 290 292 295 295 294 296 298 299 299 303 306 308 309 311 308 307 316 325 330 329 326 325 325 325 328 328 329 331 332 330 329
292 287 289 290 289 288 287 286 286 288 289 289 289 289 291 294 294 294 295 296 297 299 301 303 305 307 309 312 307 315 323 330 329 328 327 326 326 326 327 331 331 330 330 330
289 288 290 289 289 287 287 286 284 284 288 289 289 288 289 293 294 295 296 296 295 296 298 301 302 302 306 311 312 315 323 330 331 329 328 327 327 327 326 327 329 330 330 329
288 289 288 288 286 288 284 288 286 285 286 284 289 282 287 290 290 292 294 295 293 294 297 300 298 300 303 308 317 318 324 330 330 329 327 324 324 323 326 328 327 327 327 329
285 287 287 287 287 288 285 289 286 286 285 283 286 284 286 290 286 289 292 294 293 294 295 297 297 300 303 309 319 321 325 329 329 329 327 325 324 328 328 328 327 328 328 324
287 290 290 289 289 289 290 288 286 286 285 281 283 283 284 285 286 288 291 293 293 293 294 295 297 299 302 310 315 323 323 327 328 327 327 326 324 324 323 323 321 318 317 317
284 285 289 291 288 289 288 284 281 279 280 279 283 282 284 288 289 289 289 292 292 294 293 293 294 297 301 306 312 322 323 322 324 324 323 322 320 317 315 315 314 314 314 314
282 280 285 289 288 286 286 285 281 274 276 278 283 280 284 291 291 291 293 293 293 293 293 294 295 297 300 309 315 318 318 318 317 315 314 315 316 316 316 314 314 314 314 315
281 280 287 289 290 289 285 283 287 280 277 277 282 284 288 290 289 290 291 291 290 290 291 293 296 296 298 305 307 310 311 310 310 310 309 307 307 308 307 308 309 309 311 310
283 280 284 287 290 290 288 289 281 282 273 273 278 279 281 284 285 287 289 289 289 290 291 292 295 295 297 298 304 306 307 306 306 306 305 305 304 304 304 303 302 302 304 305
286 283 281 285 284 284 285 283 284 284 281 275 274 279 285 284 286 286 288 289 290 288 290 291 292 293 294 296 296 300 302 302 303 303 303 302 301 300 300 299 298 298 298 299
286 283 280 281 285 287 288 283 284 280 276 280 279 279 286 287 287 287 288 289 291 290 292 293 291 291 291 293 293 293 295 296 299 298 298 297 297 297 295 296 296 297 296 296
286 281 277 278 282 284 284 285 284 283 282 278 276 280 286 288 287 288 287 289 290 290 290 291 291 290 289 291 292 292 292 293 294 294 294 294 293 293 292 292 293 294 294 294
287 282 278 277 279 283 279 281 282 283 279 279 280 282 285 285 285 287 287 289 289 289 289 290 290 290 290 290 290 291 291 292 292 291 291 292 292 293 293 293 292 293 293 293
283 277 279 279 280 280 280 279 281 280 282 279 281 281 283 284 284 285 286 288 288 287 287 288 288 288 289 289 290 291 291 291 291 291 290 291 292 292 292 292 291 292 292 292
280 275 275 272 277 278 277 280 281 281 282 282 282 281 286 286 285 287 286 286 286 286 287 287 287 288 287 288 289 289 290 290 290 289 289 290 290 291 291 291 290 290 290 291
278 274 274 273 272 274 273 275 280 282 284 284 279 283 286 285 284 284 285 285 285 286 286 286 286 287 287 287 288 287 288 289 289 288 289 289 290 289 289 290 289 289 289 290
274 273 272 273 269 269 277 280 283 283 283 285 284 284 285 285 284 285 285 285 285 286 286 286 286 286 287 288 287 287 288 287 287 287 286 287 288 288 288 288 288 288 288 288
281 276 269 272 272 274 276 278 281 281 282 285 285 285 286 285 285 284 287 288 287 287 287 287 287 287 287 286 286 286 286 286 285 285 285 285 286 286 287 287 287 288 288 287
279 279 277 269 271 271 277 281 285 285 277 285 286 286 284 284 280 285 287 287 288 288 287 287 287 288 286 285 286 284 283 283 282 282 283 284 285 285 285 286 286 287 287 286
276 276 273 270 271 275 278 284 285 275 278 286 287 287 285 283 287 288 289 288 289 288 288 287 285 283 281 281 284 282 280 278 278 280 281 282 282 283 284 285 285 286 286 286
275 273 272 269 269 272 280 282 280 283 285 288 288 287 286 287 288 289 289 289 288 288 287 286 284 282 280 279 280 279 277 277 277 279 279 279 279 281 282 283 284 283 284 284
275 278 275 276 277 281 285 285 287 288 287 287 288 288 288 288 287 288 288 289 288 287 285 283 283 280 277 276 275 276 274 274 275 276 275 276 277 278 279 281 282 283 283 283
277 279 277 276 280 280 283 284 286 288 288 289 290 289 289 288 289 288 288 289 286 285 284 282 280 279 277 274 272 271 272 272 272 274 275 276 276 276 277 279 280 282 281 282
279 279 278 277 280 281 283 285 287 286 287 288 288 289 290 289 288 288 287 287 286 285 283 280 279 278 275 273 271 268 268 269 272 274 274 275 276 275 276 277 278 279 281 282
279 279 279 279 284 285 285 286 287 286 286 288 287 286 288 289 288 288 287 287 286 284 281 278 277 275 273 271 269 267 265 266 269 274 274 273 274 274 274 275 276 278 279 282
Wind_Speed
7 9 10 7 8 9 7 4 1 2 1 7 5 5 13 16 18 22 22 20 22 23 24 21 20 20 19 15 17 17 17 15 12 9 10 8 9 9 8 7 12 14 12 12
4 8 3 4 5 8 5 3 6 4 4 5 6 6 4 16 18 19 21 22 25 26 23 23 23 20 20 17 16 17 18 16 13 10 9 8 8 7 8 10 13 13 13 14
5 5 3 4 6 7 5 4 3 4 8 2 10 5 1 15 17 19 19 19 19 24 26 23 24 21 20 19 15 17 18 17 16 13 9 5 7 3 7 9 10 12 15 14
8 2 2 5 5 3 3 3 4 4 6 2 6 4 3 18 21 23 23 22 19 19 22 22 22 22 19 19 15 16 15 15 12 11 10 11 9 8 9 9 8 7 10 12
3 1 2 3 3 1 4 1 1 0 2 4 3 5 5 18 22 24 25 25 21 20 20 22 22 21 19 16 8 11 13 12 10 11 8 7 7 6 3 6 4 5 3 2
4 1 3 3 1 2 1 5 3 1 2 2 3 4 4 13 16 22 24 26 23 23 22 20 21 18 15 14 10 7 10 10 8 8 8 9 7 4 2 3 3 8 6 4
1 2 1 2 2 2 1 4 1 2 2 2 1 4 4 16 17 18 22 24 21 23 22 21 23 19 18 14 8 2 7 6 8 7 7 6 8 10 10 10 8 6 6 5
4 3 2 3 4 2 4 3 2 4 2 4 3 3 5 14 14 17 18 20 22 25 23 21 20 18 19 15 7 8 8 12 13 14 14 13 10 7 8 8 8 4 5 8
4 3 1 2 1 3 3 4 2 3 2 4 2 1 3 17 16 19 21 23 22 22 22 24 23 23 22 20 19 15 16 17 16 15 14 15 14 13 12 12 11 6 8 8
3 5 0 2 2 4 3 6 3 2 2 4 1 2 5 18 19 19 20 21 20 21 23 23 21 22 21 22 15 18 18 18 16 16 15 13 13 14 12 14 12 11 9 11
2 1 4 1 1 2 3 4 2 2 2 3 5 2 3 10 11 15 17 17 18 17 19 18 18 19 20 20 18 19 18 17 16 14 14 15 13 15 12 13 11 9 10 12
1 2 4 2 0 4 2 2 2 2 4 3 3 2 3 7 8 11 14 16 16 15 17 17 18 19 19 19 22 20 18 17 15 14 16 17 16 15 14 13 12 10 11 11
4 1 4 2 1 1 4 4 2 4 2 5 3 1 1 7 9 10 12 15 15 17 19 18 18 16 15 15 16 17 17 17 16 15 14 15 16 14 12 12 11 11 12 10
2 2 2 2 3 2 5 8 6 5 4 3 7 8 4 11 11 11 11 12 13 14 16 16 16 17 17 15 14 14 15 15 14 14 14 14 13 13 12 12 11 12 11 11
2 3 2 1 0 1 3 7 10 10 5 6 1 5 6 4 8 9 7 9 11 13 15 15 15 15 15 15 15 14 14 13 12 14 14 14 12 12 13 12 11 11 10 10
1 3 2 1 2 1 5 9 10 9 8 9 8 10 5 1 4 6 7 8 9 10 12 13 14 14 14 14 13 13 13 13 12 12 12 10 10 11 11 12 12 9 10 11
4 6 3 2 4 4 7 12 16 10 7 8 8 1 3 2 3 4 5 5 6 7 8 10 11 12 12 13 12 13 12 11 13 13 12 12 11 11 11 9 9 9 9 9
7 5 1 2 1 5 2 1 8 11 7 10 2 2 2 2 3 1 1 3 5 5 7 8 8 9 10 10 11 10 11 12 12 12 12 12 11 10 9 8 8 8 7 8
3 5 5 4 4 5 2 7 8 11 8 12 7 5 3 5 6 3 2 4 5 5 5 5 6 6 8 10 9 8 10 10 11 12 11 11 10 9 7 7 7 7 5 6
6 6 2 3 4 7 1 5 5 5 5 13 11 9 7 11 6 5 7 3 3 3 3 3 4 5 7 8 7 8 8 8 10 10 9 8 8 8 8 6 7 5 4 4
5 2 5 3 4 8 5 8 7 5 3 14 12 8 10 8 1 9 8 5 4 3 2 2 3 5 5 6 5 5 6 9 9 9 8 7 7 6 6 5 6 5 4 3
10 9 6 4 3 10 11 7 10 3 4 12 9 9 10 7 10 8 8 8 6 5 3 1 1 4 5 7 6 6 7 7 6 6 5 6 7 6 6 7 6 6 5 5
8 7 8 10 6 2 18 1 6 7 11 9 11 9 12 13 12 11 10 10 8 6 4 2 0 2 4 5 5 4 6 8 8 7 7 8 7 7 7 6 6 4 5 4
6 5 3 4 7 9 16 4 5 7 8 11 10 14 14 14 13 12 10 8 8 7 6 3 3 3 1 3 4 3 4 6 5 6 6 6 6 8 7 5 4 4 5 5
3 13 8 5 4 4 8 14 11 9 6 9 9 11 15 12 12 12 10 8 8 7 5 5 5 4 3 2 1 3 4 4 3 3 4 6 6 7 6 6 4 3 2 3
8 9 9 7 11 6 11 19 14 12 12 12 13 8 7 11 11 10 7 7 7 7 5 5 5 4 4 3 3 1 3 4 3 2 3 4 4 4 5 6 5 2 5 8
Wind_Direction
24 76 67 66 64 106 123 137 33 251 86 330 343 315 15 12 6 358 352 347 338 330 327 328 328 320 310 288 264 242 225 208 191 194 195 196 202 206 208 205 224 225 221 223
84 81 106 114 109 130 126 109 18 261 278 316 324 288 8 21 8 358 351 348 342 335 332 331 329 327 314 297 273 245 227 205 197 189 194 198 197 205 206 215 219 220 221 221
82 94 145 148 95 138 78 69 32 311 312 226 307 217 321 11 7 355 356 352 340 334 329 329 328 325 314 296 273 244 226 208 199 195 186 193 181 188 206 218 219 219 218 219
67 33 151 119 80 327 112 118 346 302 319 3 356 302 23 354 2 357 349 348 340 331 325 326 326 318 310 298 268 247 228 211 196 183 189 185 198 195 210 216 217 216 226 226
80 119 84 79 66 354 83 337 304 240 332 312 62 275 36 0 355 347 343 345 341 331 327 333 322 313 304 302 266 235 217 211 179 186 187 195 210 230 205 210 202 199 194 67
80 13 332 25 103 162 15 137 125 190 259 228 32 324 53 9 348 344 340 338 340 334 334 333 321 317 317 326 347 215 200 189 163 173 181 196 200 188 191 140 133 83 73 60
16 36 317 290 162 167 239 174 211 206 232 330 342 263 47 11 358 342 333 337 343 338 343 339 330 332 332 330 338 179 169 153 125 114 100 100 101 95 96 92 74 82 77 42
168 181 338 8 1 77 39 11 43 294 294 320 333 277 81 10 354 343 341 345 354 350 346 344 343 348 352 14 43 79 87 85 81 80 71 65 56 62 74 70 88 87 100 83
150 121 3 357 332 306 127 67 31 111 49 270 271 184 199 353 356 351 351 355 357 348 347 346 358 5 6 21 33 53 74 74 73 73 72 63 52 60 53 46 51 36 60 78
159 123 73 88 248 55 6 146 146 83 310 276 230 261 347 343 341 345 349 353 354 350 355 354 359 7 10 18 21 45 53 61 62 65 65 64 76 56 60 61 45 36 32 51
163 246 132 223 298 191 168 150 103 70 277 299 317 91 357 335 337 337 340 352 357 348 357 360 4 10 11 19 24 34 40 46 48 53 62 66 53 60 51 55 53 43 41 52
152 102 127 101 54 314 318 131 183 212 175 249 292 288 64 353 352 347 342 352 359 359 5 14 20 12 9 16 26 29 29 38 41 49 54 53 53 55 54 52 37 40 49 45
176 177 119 122 178 217 237 186 136 111 125 219 249 68 141 18 10 7 356 353 1 6 13 25 21 23 19 17 28 30 33 36 37 45 53 60 61 55 50 60 46 45 49 44
113 137 250 214 94 132 191 188 189 196 190 196 241 296 344 358 358 357 360 357 4 12 17 23 33 30 27 28 28 32 34 36 35 45 45 47 54 60 65 62 49 47 41 45
145 159 180 118 59 270 214 191 189 202 206 223 70 262 313 326 336 347 342 1 13 17 22 20 24 31 31 32 32 41 45 44 39 45 46 43 44 58 58 53 53 55 52 50
135 144 131 216 305 260 252 232 219 220 234 246 261 272 159 231 309 351 7 9 24 25 22 22 20 27 30 29 33 37 38 42 47 47 43 34 39 46 44 49 47 47 54 56
135 142 149 209 352 300 268 222 204 193 201 207 210 234 145 216 276 334 359 20 30 34 31 29 25 25 25 23 23 31 31 37 47 47 41 37 40 47 43 48 55 55 56 63
133 112 51 119 292 233 83 181 223 197 209 203 201 220 206 237 152 227 360 65 69 60 59 49 36 31 28 30 31 30 30 34 39 41 34 27 27 35 36 41 44 48 48 54
163 134 112 157 216 311 188 194 174 182 221 201 190 188 183 163 170 182 137 81 83 83 78 76 63 41 36 30 25 33 38 40 37 29 23 15 13 17 17 37 38 41 48 57
98 88 123 150 228 223 117 163 158 140 254 168 172 181 163 151 210 160 164 167 107 77 59 54 50 59 33 12 10 23 32 33 29 11 4 7 9 17 10 359 35 23 37 65
151 140 176 162 249 281 226 156 167 167 170 163 171 172 169 196 272 127 159 174 165 159 165 139 82 62 35 12 3 41 38 26 356 346 350 1 1 6 2 9 26 19 28 53
169 156 173 126 202 259 161 129 195 143 124 149 162 170 173 152 138 150 168 165 175 192 225 317 58 56 32 16 4 20 22 357 353 349 360 3 6 8 6 13 15 15 19 39
198 186 174 202 207 58 181 120 179 162 149 163 162 167 163 157 168 172 182 193 202 208 205 228 293 89 58 36 19 12 2 349 351 360 10 5 6 10 8 9 6 17 23 27
223 168 184 157 190 205 197 206 189 177 157 163 169 169 174 171 175 184 198 207 202 198 202 193 191 203 148 39 42 32 353 345 340 355 5 355 3 358 2 359 6 13 19 10
179 152 163 251 244 149 218 212 192 177 147 151 159 176 186 176 185 189 202 202 200 197 196 196 204 200 184 152 71 6 352 342 343 359 0 359 356 357 350 351 343 356 325 332
192 169 174 212 177 184 193 195 187 171 179 177 169 174 200 190 194 192 204 204 197 196 182 198 206 206 193 194 182 125 356 337 326 340 8 7 346 344 354 343 337 333 354 341